Regional Weather Roundup
Issued by NWS Boston, MA

Current Version | Previous Version | Text Only | Print | Product List | Glossary On
Versions: 1 2 3 4 5 6 7 8 9 10 11 12 13 14 15 16 17 18 19 20 21 22 23 24 25 26 27 28 29 30 31 32 33 34 35 36 37 38 39 40 41 42 43 44 45 46 47 48 49 50
000
ASUS41 KBOX 191210
RWRBOX

REGIONAL WEATHER ROUNDUP
NATIONAL WEATHER SERVICE TAUNTON MA
800 AM EDT SUN APR 19 2015

NOTE:  "FAIR" INDICATES FEW OR NO CLOUDS BELOW 12,000 FEET WITH NO
SIGNIFICANT WEATHER AND/OR OBSTRUCTIONS TO VISIBILITY.  THE FOLLOWING
OBSERVATION LOCATIONS DO NOT REPORT PRESENT WEATHER...PROVINCETOWN...
SMITHFIELD...BLOCK ISLAND...KEENE...AND OXFORD.

MAZALL-191300-
EASTERN MASSACHUSETTS

CITY           SKY/WX    TMP DP  RH WIND       PRES   REMARKS
BOSTON         SUNNY     47  32  56 N12       30.26R
6HR MIN TEMP:  44; 6HR MAX TEMP:  47;

BEVERLY        SUNNY     46  34  62 NW5       30.25R
LAWRENCE       SUNNY     45  33  63 N6        30.27R
BEDFORD        SUNNY     45  32  60 NW13      30.24R
BLUE HILL        N/A     44  32  62 N8G16     30.22R
NORWOOD        SUNNY     47  32  56 VRB7      30.25R
MARSHFIELD     SUNNY     46  36  66 N6        30.27R
PLYMOUTH       SUNNY     46  36  68 N10       30.24R
TAUNTON        SUNNY     48  35  60 NE6       30.24R
NEW BEDFORD    NOT AVBL
$$

MAZALL-191300-
CAPE COD AND THE ISLANDS

CITY           SKY/WX    TMP DP  RH WIND       PRES   REMARKS
FALMOUTH       SUNNY     45  36  70 N9G20     30.23R
HYANNIS        SUNNY     46  37  71 N13G22    30.21R
CHATHAM        SUNNY     45  35  68 MISG      30.23R
PROVINCETOWN   SUNNY    N/A N/A N/A N9        30.25R
NANTUCKET      SUNNY     46  36  68 N23G30    30.21R
MARTHAS VNYRD  SUNNY     46  37  71 N16       30.22R
$$

MAZALL-191300-
CENTRAL AND WESTERN MASSACHUSETTS

CITY           SKY/WX    TMP DP  RH WIND       PRES   REMARKS
WORCESTER      SUNNY     43  29  57 N12       30.22S
6HR MIN TEMP:  38; 6HR MAX TEMP:  46;

FITCHBURG      SUNNY     47  30  51 N12       30.26R
ORANGE         SUNNY     43  30  60 N8        30.26R
SPRINGFIELD    SUNNY     46  30  53 NE16G23   30.24R
WESTFIELD      SUNNY     47  30  51 N9        30.25R
NORTH ADAMS    SUNNY     39  31  72 CALM      30.25S
PITTSFIELD     SUNNY     42  29  59 NE6       30.22R
$$

RIZALL-191300-
RHODE ISLAND

CITY           SKY/WX    TMP DP  RH WIND       PRES   REMARKS
PROVIDENCE     SUNNY     48  31  51 N15       30.24R
6HR MIN TEMP:  44; 6HR MAX TEMP:  48;

NEWPORT        SUNNY     47  33  58 N13       30.23R
BLOCK ISLAND   SUNNY     46  34  61 N9        30.23R
SMITHFIELD     SUNNY     45  28  53 N12G21    30.23R
WESTERLY       SUNNY     48  33  56 NE9       30.23R
$$

CTZALL-191300-
CONNECTICUT

CITY           SKY/WX    TMP DP  RH WIND       PRES   REMARKS
BRADLEY INTL   MOSUNNY   48  30  49 NE14      30.25R
6HR MIN TEMP:  43; 6HR MAX TEMP:  51;

HARTFORD       SUNNY     48  31  51 N14G20    30.25R
BRIDGEPORT     SUNNY     52  33  48 NE14      30.24R
DANBURY        SUNNY     49  28  44 E6        30.26R
GROTON         SUNNY     49  31  49 N12       30.23R
NEW HAVEN      SUNNY     50  33  52 N13G22    30.25R
CHESTER        FAIR      48  32  53 N12       30.25R
MERIDEN        SUNNY     49  29  46 N9        30.26R
WILLIMANTIC    SUNNY     48  30  49 N8        30.23R
OXFORD         SUNNY     46  28  49 NE12      30.25R
$$

MEZ002-015-021-024-NHZ003-005-008-011-012-014-VTZ005-008-191300-
NORTHERN NEW ENGLAND

CITY           SKY/WX    TMP DP  RH WIND       PRES   REMARKS
PORTLAND ME    SUNNY     47  33  58 N12G21    30.25R
6HR MIN TEMP:  36; 6HR MAX TEMP:  47;

BANGOR ME      PTSUNNY   40  33  76 N10       30.23R
CONCORD NH     SUNNY     45  31  58 NW9       30.25R
MANCHESTER NH  SUNNY     46  29  51 N13       30.23R
NASHUA NH      SUNNY     46  31  56 NW10      30.25R
PORTSMOUTH NH  SUNNY     44  34  68 VRB2      30.24R
JAFFREY NH     SUNNY     42  29  59 VRB7      30.25R
KEENE NH       PTSUNNY   43  30  61 N9        30.27R
BURLINGTON VT  PTSUNNY   41  30  65 N9        30.31R
MT. WASHINGTON PTSUNNY   19  12  73 N36G44      N/A  WCI  -1
$$

NYZ052-076-191300-
EASTERN NEW YORK

CITY           SKY/WX    TMP DP  RH WIND       PRES   REMARKS
ALBANY         MOSUNNY   44  29  55 N9        30.28R
6HR MIN TEMP:  39; 6HR MAX TEMP:  46;

NEW YORK CITY  PTSUNNY   52  29  41 NE10      30.24R
6HR MIN TEMP:  50; 6HR MAX TEMP:  59;

$$

ANZALL-191300-
MARINE OBSERVATIONS

STATION/POSITION TIME  TEMP    WIND        PRES    VSBY  WAVE
                       AIR SEA DIR/SP/G                  HT/PER
                 (UTC) (F)     (DEG/KT/KT) (MB)    (MI)  (FT/S)
BOSTON BUOY      1150   44 42  330/  8/ 10 1024.8R         2/ 8
BUZZARDS BAY     1100           10/ 16/ 18 1023.2R
NANTUCKET SOUND  1150   45 44   10/ 16/ 19 1023.0R         1/ 3
MASS BAY-STELLWA 1104   43 42  360/ 10/ 12   N/A    1 7/8  3/ 8
ISLE OF SHOALS   1100   41     350/  7/  8 1023.1R
S OF BLOCK IS    1108      40                N/A           3/ 7
$$

......................KEY.........................
  SKY/WX - SKY CONDITION/PRESENT WEATHER
  TMP    - TEMPERATURE IN FAHRENHEIT
  DWPT   - DEWPOINT IN FAHRENHEIT
  RH     - RELATIVE HUMIDITY IN PERCENT
  WIND   - DIRECTION AND SPEED IN MPH
  PRES   - MEAN SEA LEVEL PRESSURE IN INCHES OF HG
  WCI    - WIND CHILL INDEX
  VSB    - VISIBILITY IN MILES
  HX     - HEAT INDEX
  TC     - TEMPERATURE IN CELSIUS
  VRB    - VARIABLE WIND DIRECTION
  N/A    - NOT AVAILABLE



USA.gov is the U.S. government's official web portal to all federal, state and local government web resources and services.